Location: Grieser Field
(39.7333°N, 81.7975°W)
Time: 00:27:07
(UTC-05:00)

Daily predictions for brighter satellites

Satellite Brightness Start Highest point End
(mag) Time Altitude Azimuth Time Altitude Azimuth Time Altitude Azimuth
USA 234 4.5 03:36:40 10° ENE 03:41:54 33° ESE 03:41:54 33° ESE
ATLAS 5 CENTAUR R/B 4.3 03:46:24 18° NE 03:46:24 18° NE 03:47:49 10° NE
Cosmos 1943 Rocket 3.8 03:51:54 30° NE 03:51:54 30° NE 03:54:56 10° NE
CZ-4C R/B 4.0 03:54:44 24° ESE 03:54:44 24° ESE 03:58:57 10° ENE
CZ-4B R/B 4.2 03:59:12 10° NNE 04:03:30 44° ENE 04:03:30 44° ENE
ADEOS II 3.1 04:10:26 10° NNE 04:14:12 43° NE 04:14:12 43° NE
Okean O Rocket 4.3 04:19:22 10° N 04:19:45 12° N 04:19:45 12° N
Meteor 1-26 Rocket 4.5 04:41:38 26° S 04:44:53 66° E 04:50:27 10° NNE
Nadezhda 2 Rocket 4.3 04:40:33 10° N 04:46:41 89° W 04:52:49 10° S
Okean 1-7 4.2 04:45:42 22° SSE 04:47:57 41° E 04:51:58 10° NNE
CZ-4B DEB 4.3 04:46:21 10° N 04:51:11 58° NW 04:51:11 58° NW
Cosmos 1656 Rocket 3.8 04:50:01 40° S 04:52:04 71° ESE 04:57:44 10° NNE
Cosmos 2219 4.2 04:48:36 10° N 04:54:03 45° ENE 04:59:25 10° SE
Cosmos 2369 Rocket 3.7 04:56:09 22° NNW 04:56:09 22° NNW 04:58:57 10° N
Meteor 1-31 Rocket 3.2 04:54:28 10° NNE 04:58:19 59° E 04:58:26 58° ESE
ATLAS CENTAUR R/B 3.7 04:59:20 46° W 05:00:57 52° SW 05:17:07 10° SSE
GEOS 3 Rocket 3.4 04:56:42 10° SSE 05:01:48 78° SW 05:02:58 54° NW
Cosmos 1417 Rocket 4.4 05:00:52 10° S 05:07:03 84° E 05:13:13 10° N
Lacrosse 5 2.6 05:07:32 37° NNW 05:07:32 37° NNW 05:12:03 10° NNE
Cosmos 1782 Rocket 3.6 05:03:19 10° N 05:07:48 79° E 05:12:13 10° S
Cosmos 1954 Rocket 3.9 05:06:18 10° NNW 05:11:39 83° WSW 05:16:57 10° SSE
Cosmos 1420 Rocket 3.9 05:13:54 17° SSW 05:17:53 85° ESE 05:23:06 10° NNE
Meteor 2-10 Rocket 3.4 05:17:38 38° SW 05:19:23 61° WNW 05:24:24 10° N
Okean-O 2.5 05:17:17 10° N 05:21:43 71° WNW 05:23:59 28° SSW
Cosmos 1833 4.4 05:21:18 40° W 05:22:14 43° WSW 05:27:30 10° S
Tiangong 1 1.7 05:24:16 45° NNE 05:24:16 45° NNE 05:26:38 10° ENE
ERS-2 4.2 05:21:02 10° N 05:21:59 16° NNW 05:21:59 16° NNW
NOAA 6 4.2 05:19:13 10° NNE 05:24:23 71° ESE 05:29:29 10° S
Feng Yun 1-1 Rocket 4.3 05:19:30 10° N 05:25:25 77° WNW 05:31:19 10° SSW
USA 234 3.3 05:19:15 10° NE 05:25:43 66° NW 05:29:16 28° WSW
ATLAS 5 CENTAUR R/B 3.3 05:27:58 21° NW 05:28:00 21° NW 05:31:54 10° N
SJ-6F 4.3 05:26:22 10° N 05:30:31 84° WNW 05:34:37 10° SSW
Cosmos 1943 Rocket 3.2 05:33:27 25° WNW 05:33:37 25° NW 05:38:10 10° N
Okean 2 Rocket 2.9 05:32:00 10° NNW 05:36:22 67° W 05:40:43 10° S
Radarsat Rocket 4.4 05:31:23 10° NNE 05:38:35 77° ESE 05:44:53 10° SSW
Thor Agena Rocket 3.6 05:35:20 10° S 05:40:27 57° WSW 05:45:33 10° NNW
Cosmos 1703 Rocket 4.3 05:41:19 30° WNW 05:41:19 30° WNW 05:44:58 10° NNW
SL-08 R/B 4.4 05:35:58 10° NNW 05:42:15 69° W 05:48:31 10° S
CZ-4C R/B 2.5 05:39:58 27° WSW 05:42:31 47° NW 05:48:17 10° NNE
Cosmos 1607 4.1 05:37:42 10° SSW 05:43:46 71° ESE 05:49:56 10° NE
Cosmos 1452 Rocket 4.1 05:42:34 27° WSW 05:44:27 34° WNW 05:49:16 10° N
Meteor 1-28 Rocket 3.8 05:41:09 10° SSE 05:44:47 58° ENE 05:48:29 10° N
CZ-4B R/B 4.4 05:40:35 10° NNW 05:44:51 23° WNW 05:45:24 22° WNW
ATLAS 3B R/B 3.1 05:39:42 10° SSW 05:47:17 77° ESE 05:54:37 10° NE
Delta 2 Rocket 4.4 05:44:49 23° SW 05:47:36 49° S 05:52:43 10° E
CZ-4B R/B 4.5 05:44:13 10° N 05:47:54 36° WNW 05:50:11 20° SW
Lacrosse 5 rocket 3.0 05:49:01 10° NNW 05:52:04 25° NE 05:55:06 10° E
Meteor 1-20 Rocket 4.2 05:48:25 10° NNW 05:54:05 66° W 05:59:35 10° S
ADEOS II 3.5 05:51:24 10° NNW 05:54:52 18° WNW 05:55:09 18° WNW
S3M 4.1 05:49:33 10° SSW 05:55:43 53° W 06:01:51 10° N
Cosmos 2151 Rocket 3.6 05:51:29 10° N 05:56:01 90° WSW 06:00:29 10° S
Cosmos 1741 Rocket 3.9 05:52:03 10° NNW 05:57:16 70° WSW 06:02:29 10° S
Cosmos 1553 Rocket 4.3 05:56:32 10° SSW 06:02:24 44° WNW 06:08:24 10° N
Meteor 2-11 Rocket 4.4 05:58:28 10° SSW 06:04:32 71° W 06:10:41 10° N
COSMO-SKYMED 1 2.7 06:03:42 10° S 06:07:55 51° W 06:12:10 10° NNW
Cosmos 1606 2.8 06:05:41 10° SSW 06:09:27 52° W 06:13:17 10° N
Cosmos 1782 3.2 06:06:12 10° SSW 06:09:55 39° WNW 06:13:40 10° N
Cosmos 1602 4.2 06:07:00 10° N 06:10:57 68° E 06:14:52 10° SSE
Cosmos 2369 4.2 06:07:45 10° S 06:13:18 64° ESE 06:18:54 10° NNE
CZ-2C R/B 3.8 06:08:43 10° NNE 06:13:26 44° E 06:18:16 10° S
Cosmos 1140 Rocket 4.3 06:09:11 10° NW 06:13:38 29° W 06:18:04 10° SSW
USA 81 4.4 06:14:53 10° SSW 06:19:53 44° W 06:24:56 10° N
Cosmos 2297 Rocket 3.0 06:16:27 10° NNW 06:22:01 56° ENE 06:27:33 10° SE
Meteor 2-6 Rocket 4.3 06:20:42 10° SSW 06:25:53 49° WNW 06:31:09 10° N
CSL-04 Debris 4.2 06:23:48 10° NNE 06:29:14 88° ESE 06:34:37 10° SSW
Cosmos 2278 3.7 06:24:06 10° SSW 06:29:45 88° WNW 06:35:27 10° NNE
Cosmos 1346 Rocket 4.2 06:29:05 10° SSE 06:32:59 45° E 06:36:52 10° NNE
Cosmos 1709 Rocket 4.0 06:28:32 10° NNW 06:34:37 68° W 06:40:41 10° S
Cosmos 2219 4.2 06:33:24 10° NW 06:37:52 24° WSW 06:42:17 10° SSW
BREEZE M DEB (TANK) 4.5 06:29:56 10° WNW 06:40:02 33° NNW 06:43:44 10° NE
PAYLOAD A 3.8 06:35:27 10° N 06:40:09 68° WNW 06:45:00 10° SSW
YAOGAN 1 3.8 06:36:06 10° NNE 06:40:18 49° E 06:44:30 10° S
Cosmos 2227 Rocket 2.2 06:36:36 10° NNW 06:42:17 76° WSW 06:47:55 10° SSE
